EHI
2 8 17 17 11 5 3 3 3 2 1 0 0 0 0 0 0 0 0 0 0 0 0 0 0 0 1 0 0 0 0 0 0 0 0 0 0 1 0 0 0 0 0
2 8 17 18 13 6 3 3 4 3 1 0 0 0 0 0 0 0 0 0 0 0 0 0 0 1 1 1 0 0 0 0 0 0 0 0 0 1 0 0 0 0 0
3 8 16 19 14 6 3 4 5 4 1 0 0 0 0 0 0 0 1 0 0 0 1 1 1 1 2 1 1 1 0 0 0 0 0 0 0 0 0 0 0 0 0
4 9 16 18 13 6 4 4 5 3 1 0 0 0 0 1 1 0 0 0 0 0 1 1 1 1 1 0 1 2 1 0 0 0 0 0 0 0 0 0 0 0 0
6 10 16 17 12 6 4 4 4 3 1 1 1 1 1 2 2 1 1 1 1 0 1 1 0 0 0 0 1 2 2 1 0 0 0 0 0 0 0 0 0 0 0
7 11 16 16 12 8 7 5 4 4 3 3 3 3 3 3 3 3 2 2 1 0 0 0 0 0 0 0 1 2 2 1 0 0 0 0 0 0 0 0 0 0 0
8 11 15 15 12 10 10 7 5 5 4 4 5 5 5 4 4 3 3 2 1 0 0 0 0 0 0 0 0 1 1 1 0 0 0 0 0 0 0 0 0 0 0
6 9 13 13 10 10 10 8 6 6 6 6 6 7 7 6 5 3 1 1 1 1 0 0 0 0 0 0 0 0 0 0 0 0 0 0 0 0 0 0 0 0 0
4 6 8 7 7 8 9 8 7 8 8 7 8 8 7 6 4 2 0 1 2 1 1 0 0 0 0 0 0 0 0 0 0 0 0 0 0 0 0 0 0 0 0
4 5 6 5 4 6 7 6 6 6 6 7 6 5 4 4 3 1 0 1 2 2 1 0 0 0 0 0 0 0 0 0 0 0 0 0 0 0 0 0 0 0 0
4 4 5 5 4 5 5 5 4 3 3 3 3 1 1 2 1 0 0 1 1 1 1 0 0 0 0 0 0 0 0 0 0 0 0 0 0 0 0 0 0 0 0
4 4 3 4 5 6 5 5 4 3 2 1 1 0 1 1 1 0 0 0 0 0 0 0 0 0 0 0 0 0 0 0 0 0 0 0 0 0 0 0 0 0 0
4 4 3 4 6 7 7 7 6 6 4 2 1 0 1 2 2 1 1 0 0 0 0 0 0 0 0 0 0 0 0 0 0 0 0 0 0 0 0 0 0 0 0
5 6 5 5 6 7 7 8 7 7 6 5 2 1 1 3 4 3 2 0 0 0 0 0 0 0 0 0 0 0 0 0 0 0 0 0 0 0 0 0 0 0 0
5 6 7 6 6 6 7 7 6 6 6 5 3 1 1 3 4 4 2 0 0 0 0 0 0 0 0 0 0 0 0 0 0 0 0 0 0 0 0 0 0 0 0
4 5 6 6 6 6 7 7 6 5 5 4 3 2 2 3 3 3 1 0 0 0 0 0 0 0 0 0 0 0 0 0 0 0 0 0 0 0 0 0 0 0 0
2 3 4 5 6 6 6 6 6 4 4 3 3 3 3 3 3 2 1 0 0 0 0 0 0 0 0 0 0 0 0 0 0 0 0 0 0 0 0 0 0 0 0
1 2 3 5 6 6 6 6 6 4 3 3 3 3 3 3 2 1 1 1 0 0 0 0 0 0 0 0 0 0 0 0 0 0 0 0 0 0 0 0 0 0 0
2 3 3 4 5 6 6 6 5 4 3 3 3 3 3 2 1 1 1 1 0 0 0 0 0 0 0 0 0 0 0 0 0 0 0 0 0 0 0 0 0 0 0
3 4 4 3 4 6 6 5 4 3 3 3 3 3 2 1 1 2 2 1 0 0 0 0 0 0 0 0 0 0 0 0 0 0 0 0 0 0 0 0 0 0 0
4 5 4 4 4 5 4 4 3 3 3 3 3 2 1 1 1 2 2 1 0 0 0 0 0 0 0 0 0 0 0 0 0 0 0 0 0 0 0 0 0 0 0
3 5 6 5 5 4 3 3 3 3 2 2 2 1 1 1 1 2 2 1 0 0 0 0 0 0 0 0 0 0 0 0 0 0 0 0 0 0 0 0 0 0 0
2 4 6 6 5 4 3 3 3 2 1 1 1 1 1 1 1 1 2 1 0 0 0 0 0 0 0 0 0 0 0 0 0 0 0 0 0 0 0 0 0 0 0
1 3 5 4 4 4 3 3 2 1 0 0 0 0 1 1 0 1 1 0 0 0 0 0 0 0 0 0 0 0 0 0 0 0 0 0 0 0 0 0 0 0 0
0 1 3 3 3 3 3 2 1 1 0 0 0 0 0 0 0 0 0 0 0 0 0 0 0 0 0 0 0 0 0 0 0 0 0 0 0 0 0 0 0 0 0
0 1 2 3 3 3 2 1 0 0 0 0 0 0 0 0 0 0 0 0 0 0 0 0 0 0 0 0 0 0 0 0 0 0 0 0 0 0 0 0 0 0 0
Wind_Speed
5 6 7 9 9 10 10 10 9 9 9 9 9 10 10 10 10 10 10 10 10 10 11 11 12 12 12 13 13 14 14 14 14 13 13 13 14 14 14 12 11 12 15
6 7 7 9 11 10 10 10 9 9 9 9 9 9 10 10 10 11 11 11 11 11 11 11 12 13 13 13 13 13 14 13 13 12 10 11 12 13 14 13 12 11 14
7 8 8 9 11 11 10 10 10 9 9 9 9 9 10 10 11 11 12 11 11 11 11 12 12 13 13 13 13 13 13 13 11 9 7 9 11 13 14 14 14 14 14
7 7 8 10 11 11 10 10 10 10 10 10 10 10 10 10 11 12 12 12 12 12 12 13 13 13 13 13 13 13 13 12 10 7 7 9 9 13 13 13 14 14 14
7 7 9 11 11 11 10 10 10 10 10 10 10 10 10 11 11 12 12 12 13 13 13 13 13 13 13 13 13 13 12 11 9 8 9 9 9 12 13 13 13 14 14
7 7 9 10 11 11 10 10 10 10 10 10 10 10 10 11 12 12 12 12 12 12 13 13 13 13 13 13 12 12 12 9 8 9 9 8 9 12 13 13 13 13 13
7 7 9 10 11 11 10 10 10 10 10 10 10 10 10 11 12 12 12 12 12 13 13 13 13 13 13 13 13 13 12 9 8 9 8 8 9 12 13 13 13 13 13
7 7 7 10 10 10 10 10 10 10 10 11 10 10 11 11 11 11 12 12 12 13 13 13 13 13 13 13 13 13 11 8 8 9 8 8 11 12 13 13 13 13 13
6 6 6 8 9 10 10 10 9 9 10 10 10 10 11 11 11 11 11 12 12 12 13 13 13 13 13 13 13 13 11 9 8 7 8 7 10 12 13 13 13 13 12
6 6 6 7 8 9 9 10 10 9 9 10 10 10 10 10 10 10 11 11 12 12 12 12 13 13 13 13 13 12 9 6 9 8 6 8 11 12 13 13 13 13 13
5 5 5 6 7 8 8 8 8 8 9 8 8 9 7 6 7 7 10 11 11 11 12 12 12 12 11 11 11 9 6 6 8 7 7 10 11 12 12 13 12 13 13
7 5 4 5 6 7 6 6 5 5 6 6 6 6 5 5 5 7 10 10 11 11 11 12 11 9 7 6 7 6 5 7 7 6 7 11 11 11 12 12 13 12 12
7 6 4 5 6 6 5 5 4 3 4 5 6 5 5 5 4 5 4 6 7 7 6 7 6 5 5 5 5 5 6 5 5 5 7 10 10 10 11 12 12 12 12
7 6 5 4 5 5 5 5 4 4 3 4 5 5 4 4 4 4 3 4 4 3 4 4 4 6 6 6 6 6 7 5 5 5 7 10 10 11 11 11 11 11 11
6 6 5 4 5 5 6 4 4 4 4 4 4 4 4 4 4 4 3 3 4 3 4 4 4 5 6 6 6 6 7 7 6 6 6 12 12 11 11 11 11 11 11
6 6 5 5 5 5 6 5 4 4 4 4 4 5 5 4 4 4 4 4 4 3 3 3 4 4 5 5 6 6 6 6 6 6 6 8 12 12 12 12 11 11 10
6 6 6 5 5 6 6 7 5 4 5 4 4 5 5 5 5 5 4 4 4 4 4 4 5 4 5 5 6 6 5 6 6 7 6 5 6 11 12 12 12 11 11
5 5 5 5 6 5 6 6 5 4 5 4 4 4 5 5 5 5 4 4 4 4 3 3 3 4 4 4 4 4 5 5 6 6 6 6 5 5 9 12 12 12 11
6 6 6 6 6 6 6 5 5 5 4 4 4 4 5 5 5 5 4 4 5 4 4 3 3 3 4 4 4 4 4 5 5 5 6 7 6 6 5 8 11 12 11
5 5 6 6 6 5 5 5 4 4 4 3 4 4 5 5 5 5 4 5 5 4 4 4 4 4 4 4 4 5 4 4 4 5 5 5 6 6 6 6 5 7 11
4 5 6 6 6 5 5 5 5 4 4 4 3 5 6 5 5 5 4 5 4 4 5 5 5 6 4 3 3 4 4 4 4 4 4 4 5 6 6 6 5 5 5
4 5 6 6 6 5 5 4 4 4 3 3 3 4 5 5 5 4 5 5 5 4 6 6 6 4 3 2 2 2 2 2 2 3 3 3 4 4 5 5 5 5 5
4 5 4 5 6 5 5 4 4 4 3 3 4 4 4 5 5 5 6 5 5 5 5 6 6 5 4 3 1 1 2 2 2 1 1 2 3 3 3 4 4 4 5
4 4 4 4 5 5 5 6 7 6 5 5 4 4 5 5 5 5 5 6 5 4 5 6 5 4 5 4 2 0 1 1 2 2 1 1 2 2 3 2 3 3 4
3 3 4 4 4 4 5 6 7 5 4 4 4 5 5 5 5 5 5 5 5 4 5 6 5 5 4 4 3 2 1 1 1 2 2 2 0 1 1 2 2 2 3
2 3 3 4 4 4 5 6 6 6 5 6 6 6 5 4 4 5 5 5 5 4 5 5 5 6 4 4 3 2 2 2 2 2 2 2 1 0 1 1 1 1 2
Wind_Direction
162 161 169 157 143 134 127 122 117 112 109 105 100 94 91 89 86 82 81 82 82 82 82 80 80 81 79 78 77 76 75 72 71 72 73 76 78 78 76 73 77 80 77
158 161 162 153 142 135 129 124 120 115 111 107 102 98 94 90 87 84 84 83 82 80 81 81 79 79 78 77 76 75 75 73 72 70 72 80 77 77 76 70 66 76 77
156 158 158 147 138 134 130 126 122 119 115 110 106 101 98 94 89 86 85 84 82 80 79 80 79 77 76 77 77 75 75 74 71 67 75 82 81 77 77 76 75 78 77
156 156 155 143 137 134 130 127 124 121 118 112 107 103 99 95 92 89 85 83 81 81 79 79 78 78 77 76 76 75 74 72 65 63 75 75 78 76 77 78 78 78 77
151 153 146 140 136 133 130 128 124 120 116 112 108 104 100 97 93 89 86 83 81 79 78 79 77 77 77 76 76 75 74 71 63 68 71 71 71 72 74 76 77 78 76
144 148 141 138 135 131 128 126 124 118 116 112 108 105 101 98 95 90 87 84 81 79 78 78 76 76 76 76 76 74 72 66 74 72 68 68 69 71 73 74 75 76 75
141 140 142 137 135 132 129 125 124 121 118 115 111 106 103 99 95 92 89 87 85 83 80 78 77 75 75 76 75 72 66 58 72 73 69 67 67 70 72 74 74 76 76
140 137 140 137 133 132 130 128 124 123 120 116 114 110 104 100 98 96 92 89 88 86 83 80 78 76 76 77 75 71 64 62 76 73 70 68 63 68 71 71 72 74 75
139 135 136 143 137 129 127 123 120 118 115 113 110 106 102 98 96 96 93 90 89 87 84 82 79 78 76 76 75 71 64 56 75 73 71 67 62 67 69 68 68 68 70
143 139 139 145 144 140 134 123 119 115 111 109 104 100 97 97 98 96 95 90 89 87 84 82 80 78 77 75 73 69 63 67 72 71 69 65 62 65 65 66 66 65 66
154 149 146 148 146 142 138 129 123 116 110 110 107 101 107 114 110 103 91 88 88 87 85 82 80 78 78 76 70 63 63 70 72 67 64 58 62 65 65 63 64 65 65
171 162 158 160 150 146 139 137 138 133 128 127 125 121 119 112 102 101 91 85 84 83 83 79 77 77 74 80 75 66 68 71 72 68 61 55 62 66 66 64 62 61 63
176 171 163 164 154 149 143 142 141 139 137 133 129 125 121 114 112 108 106 96 89 84 82 81 74 66 66 68 69 69 67 67 66 67 60 55 62 67 67 64 62 59 60
179 176 170 169 156 150 148 148 148 143 142 137 134 133 133 124 119 116 109 105 97 88 82 76 72 70 70 70 73 74 71 68 66 63 56 51 60 64 66 65 63 61 60
185 180 180 177 167 161 155 148 151 148 148 140 139 141 140 134 127 120 113 103 96 93 90 85 82 79 75 71 70 72 71 70 69 69 63 51 52 56 60 61 61 61 59
197 189 185 187 178 173 164 154 152 151 147 146 145 146 144 137 134 130 120 109 101 95 91 92 88 85 78 74 71 69 70 68 66 67 66 58 50 49 53 55 56 57 58
204 196 190 187 186 182 171 159 151 152 152 149 145 150 147 143 144 136 129 121 111 105 101 97 91 87 82 76 70 66 66 65 68 63 58 54 51 47 47 49 51 53 53
206 198 194 186 186 186 178 163 155 152 155 153 147 148 148 147 150 142 137 126 120 116 112 107 102 96 87 78 69 64 64 62 63 60 57 50 46 42 46 45 44 45 45
208 198 192 189 186 184 176 162 157 151 153 153 149 149 151 150 154 150 143 134 133 126 121 118 110 103 95 82 72 65 63 61 59 58 59 51 46 42 42 45 42 40 38
210 199 191 187 184 178 168 155 152 150 146 150 151 151 152 152 153 150 144 143 141 137 130 128 117 103 97 93 85 70 62 66 63 54 53 52 47 44 40 37 38 40 37
209 202 194 185 182 174 170 168 167 168 157 152 153 154 156 153 153 152 147 148 151 149 144 140 128 120 111 114 102 91 78 69 67 54 47 50 50 44 41 39 35 30 30
214 210 202 192 183 184 179 172 169 157 156 148 147 155 159 157 156 158 157 159 160 156 155 151 143 136 130 144 134 138 137 137 80 53 48 46 42 39 38 37 38 33 25
219 217 212 197 189 186 172 154 140 138 136 152 160 165 168 164 163 164 166 164 165 166 167 166 162 159 156 152 166 176 178 169 131 124 68 52 37 33 34 31 34 30 25
220 214 210 199 188 176 168 175 174 177 174 177 170 169 166 167 167 167 169 168 167 171 175 174 174 172 172 165 153 15 354 119 165 155 164 99 35 23 21 15 22 26 20
215 206 202 194 182 172 177 181 186 183 172 160 162 166 165 163 168 168 170 171 171 173 178 180 179 177 185 182 169 156 141 153 181 183 182 180 150 14 359 355 1 6 13
211 200 199 193 186 177 180 179 186 179 166 164 168 168 168 166 169 171 175 174 174 176 181 185 186 186 186 184 179 183 190 191 185 192 187 194 213 249 312 319 316 350 2